Location: Unspecified
(0.0000°N, 0.0000°E)
Time: 06:46:09
(UTC+00:00)

Explorer 11/Cluster Stage 4 - All Passes

Search period start: 08 February 2023 00:00
Search period end: 18 February 2023 00:00
Orbit: 466 x 1243 km, 28.8° (Epoch: 07 February)

Date Brightness Start Highest point End Pass type
(mag) Time Alt. Az. Time Alt. Az. Time Alt. Az.
08 Feb - 01:50:10 10° NW 01:52:02 11° NNW 01:54:00 10° N night (unlit)
08 Feb - 07:21:55 10° N 07:25:26 13° NNE 07:28:54 10° NE daylight
08 Feb - 09:08:23 10° NW 09:15:34 35° NNE 09:22:02 10° E daylight
08 Feb - 10:57:11 10° WNW 11:04:49 75° SSW 11:11:09 10° SE daylight
08 Feb - 12:48:55 10° WSW 12:53:27 19° SSW 12:57:26 10° SSE daylight
08 Feb - 21:57:16 10° SW 22:01:04 48° SSE 22:05:33 10° ENE night (unlit)
08 Feb - 23:45:27 10° W 23:49:23 29° NNW 23:54:06 10° NNE night (unlit)
09 Feb - 07:07:52 10° N 07:12:07 15° NNE 07:16:21 10° NE daylight
09 Feb - 08:54:37 10° NW 09:02:09 41° NNE 09:08:58 10° E daylight
09 Feb - 10:43:37 10° WNW 10:51:22 66° SSW 10:57:53 10° SE daylight
09 Feb - 12:35:49 10° WSW 12:40:07 17° SSW 12:43:58 10° S daylight
09 Feb - 21:44:06 10° SW 21:47:51 60° SSE 21:52:15 10° ENE night (unlit)
09 Feb - 23:32:43 10° WNW 23:36:14 23° NNW 23:40:17 10° NNE night (unlit)
10 Feb - 06:53:57 10° NNW 06:58:47 17° NNE 07:03:36 10° ENE daylight
10 Feb - 08:40:53 10° NW 08:48:40 46° NNE 08:55:50 10° E daylight
10 Feb - 10:30:06 10° WNW 10:37:53 58° SSW 10:44:33 10° SE daylight
10 Feb - 12:22:44 10° WSW 12:26:46 16° SSW 12:30:26 10° S daylight
10 Feb - 21:30:57 10° SW 21:34:39 77° SSE 21:38:55 10° ENE night (unlit)
10 Feb - 23:20:07 10° WNW 23:23:03 18° NNW 23:26:23 10° NNE night (unlit)
11 Feb - 06:40:07 10° NNW 06:45:23 19° NNE 06:50:44 10° ENE daylight
11 Feb - 08:27:12 10° NW 08:35:08 53° NNE 08:42:36 10° ESE daylight
11 Feb - 10:16:37 10° WNW 10:24:22 51° SSW 10:31:10 10° SE daylight
11 Feb - 12:09:44 10° WSW 12:13:25 15° SSW 12:16:50 10° S daylight
11 Feb - 19:32:01 10° S 19:33:29 12° SSE 19:34:57 10° SE visible
11 Feb - 21:17:48 10° WSW 21:21:28 82° NNW 21:25:34 10° ENE night (unlit)
11 Feb - 23:07:43 10° NW 23:09:55 14° NNW 23:12:18 10° N night (unlit)
12 Feb - 06:26:20 10° NNW 06:31:58 21° NNE 06:37:45 10° ENE daylight
12 Feb - 08:13:33 10° NW 08:21:35 61° NNE 08:29:19 10° ESE daylight
12 Feb - 10:03:10 10° WNW 10:10:50 46° SSW 10:17:43 10° SE daylight
12 Feb - 11:56:47 10° SW 12:00:04 13° SSW 12:03:09 10° S daylight
12 Feb - 19:18:06 10° S 19:20:18 15° SSE 19:22:29 10° ESE visible
12 Feb - 21:04:42 10° WSW 21:08:16 61° NNW 21:12:10 10° NE visible
12 Feb - 22:55:55 10° NW 22:56:46 10° NNW 22:57:38 10° N night (unlit)
13 Feb - 06:12:37 10° NNW 06:18:30 23° NNE 06:24:40 10° ENE daylight
13 Feb - 07:59:57 10° NW 08:08:00 69° NNE 08:15:56 10° ESE daylight
13 Feb - 09:49:45 10° W 09:57:18 41° SSW 10:04:12 10° SE daylight
13 Feb - 11:43:59 10° SW 11:46:43 12° SSW 11:49:21 10° S daylight
13 Feb - 19:04:23 10° SSW 19:07:07 19° SSE 19:09:46 10° ESE visible
13 Feb - 20:51:38 10° WSW 20:55:06 45° NNW 20:58:46 10° NE visible
14 Feb - 05:58:56 10° NNW 06:05:01 26° NNE 06:11:30 10° E daylight
14 Feb - 07:46:23 10° NW 07:54:24 78° NNE 08:02:30 10° ESE daylight
14 Feb - 09:36:24 10° W 09:43:44 36° SSW 09:50:38 10° SE daylight
14 Feb - 11:31:20 10° SW 11:33:23 11° SSW 11:35:22 10° S daylight
14 Feb - 18:50:45 10° SSW 18:53:56 24° SSE 18:56:57 10° E visible
14 Feb - 20:38:35 10° W 20:41:54 34° NNW 20:45:19 10° NE visible
15 Feb - 05:45:18 10° NNW 05:51:31 29° NNE 05:58:15 10° E visible
15 Feb - 07:32:52 10° WNW 07:40:47 87° NNE 07:48:59 10° ESE daylight
15 Feb - 09:23:06 10° W 09:30:11 32° SSW 09:37:00 10° SSE daylight
15 Feb - 11:19:12 10° SSW 11:20:02 10° SSW 11:20:52 10° SSW daylight
15 Feb - 18:37:08 10° SW 18:40:45 31° SSE 18:44:01 10° E visible
15 Feb - 20:25:33 10° W 20:28:41 27° NNW 20:31:49 10° NNE visible
16 Feb - 05:31:43 10° NNW 05:37:58 32° NNE 05:44:55 10° E visible
16 Feb - 07:19:23 10° WNW 07:27:10 84° SSW 07:35:24 10° ESE daylight
16 Feb - 09:09:51 10° W 09:16:39 29° SSW 09:23:18 10° SSE daylight
16 Feb - 18:23:34 10° SW 18:27:32 41° SSE 18:31:02 10° E daylight
16 Feb - 20:12:35 10° W 20:15:28 21° NNW 20:18:17 10° NNE visible
17 Feb - 05:18:10 10° NNW 05:24:25 36° NNE 05:31:31 10° E visible
17 Feb - 07:05:58 10° WNW 07:13:33 74° SSW 07:21:46 10° SE daylight
17 Feb - 08:56:40 10° W 09:03:06 26° SSW 09:09:32 10° SSE daylight
17 Feb - 16:23:55 10° S 16:25:34 11° SSE 16:27:07 10° SE daylight
17 Feb - 18:10:01 10° SW 18:14:17 54° SSE 18:17:58 10° ENE daylight
17 Feb - 19:59:39 10° WNW 20:02:13 17° NNW 20:04:41 10° NNE visible
